| time (UTC) | temp F | wind direction | speed MPH | gust MPH | rain 1hr in | rain 24hr in | rain mn in | humidity % | barometer mb |
| 20260510030417 | 53 | 229 | 2.0 | 5.0 | 0.00 | 0.00 | 0.00 | 84 | 1011.4 |
| 20260510025916 | 53 | 332 | 2.0 | 5.0 | 0.00 | 0.00 | 0.00 | 84 | 1011.0 |
| 20260510025418 | 53 | 321 | 2.0 | 5.0 | 0.00 | 0.00 | 0.00 | 83 | 1011.0 |
| 20260510024917 | 54 | 359 | 2.0 | 6.0 | 0.00 | 0.00 | 0.00 | 83 | 1011.0 |
| 20260510024416 | 54 | 73 | 4.0 | 6.0 | 0.00 | 0.00 | 0.00 | 84 | 1011.1 |
| 20260510023916 | 54 | 84 | 5.0 | 5.0 | 0.00 | 0.00 | 0.00 | 84 | 1011.1 |
| 20260510023416 | 54 | 76 | 4.0 | 5.0 | 0.00 | 0.00 | 0.00 | 82 | 1010.9 |
| 20260510022918 | 54 | 54 | 3.0 | 3.0 | 0.00 | 0.00 | 0.00 | 81 | 1010.9 |
| 20260509141414 | 64 | 203 | 3.0 | 10.0 | 0.00 | 0.00 | 0.00 | 64 | 1010.6 |
| 20260509140914 | 64 | 180 | 6.0 | 12.0 | 0.00 | 0.00 | 0.00 | 67 | 1010.6 |
| 20260509140414 | 63 | 219 | 8.0 | 12.0 | 0.00 | 0.00 | 0.00 | 69 | 1010.6 |
| 20260509135914 | 63 | 212 | 5.0 | 12.0 | 0.00 | 0.00 | 0.00 | 70 | 1010.6 |
| 20260509135414 | 62 | 215 | 8.0 | 12.0 | 0.00 | 0.00 | 0.00 | 71 | 1010.9 |
| 20260509134914 | 61 | 197 | 5.0 | 8.0 | 0.00 | 0.00 | 0.00 | 73 | 1010.9 |
| 20260509134414 | 61 | 161 | 2.0 | 8.0 | 0.00 | 0.00 | 0.00 | 72 | 1011.0 |
| 20260509133914 | 60 | 195 | 5.0 | 12.0 | 0.00 | 0.00 | 0.00 | 73 | 1011.1 |
| 20260509133414 | 60 | 201 | 6.0 | 12.0 | 0.00 | 0.00 | 0.00 | 76 | 1011.1 |
| 20260509132914 | 59 | 212 | 5.0 | 9.0 | 0.00 | 0.00 | 0.00 | 75 | 1011.1 |
| 20260509132414 | 58 | 216 | 4.0 | 6.0 | 0.00 | 0.00 | 0.00 | 76 | 1011.1 |
| 20260509131915 | 58 | 220 | 1.0 | 3.0 | 0.00 | 0.00 | 0.00 | 76 | 1011.1 |
| 20260509131414 | 58 | 198 | 1.0 | 5.0 | 0.00 | 0.00 | 0.00 | 77 | 1011.1 |
| 20260509130914 | 57 | 190 | 2.0 | 6.0 | 0.00 | 0.00 | 0.00 | 77 | 1011.1 |
| 20260509130414 | 57 | 176 | 2.0 | 6.0 | 0.00 | 0.00 | 0.00 | 79 | 1011.1 |
| 20260509125914 | 56 | 167 | 1.0 | 6.0 | 0.00 | 0.00 | 0.00 | 79 | 1011.2 |
| 20260509125414 | 56 | 182 | 3.0 | 6.0 | 0.00 | 0.00 | 0.00 | 81 | 1011.1 |
| 20260509124914 | 55 | 184 | 2.0 | 6.0 | 0.00 | 0.00 | 0.00 | 80 | 1011.2 |
| 20260509124414 | 55 | 177 | 3.0 | 6.0 | 0.00 | 0.00 | 0.00 | 82 | 1011.3 |
| 20260509123914 | 55 | 191 | 3.0 | 6.0 | 0.00 | 0.00 | 0.00 | 82 | 1011.3 |
| 20260509123415 | 54 | 182 | 2.0 | 5.0 | 0.00 | 0.00 | 0.00 | 85 | 1011.3 |
| 20260509122914 | 54 | 189 | 2.0 | 6.0 | 0.00 | 0.00 | 0.00 | 87 | 1011.3 |
| 20260509122414 | 54 | 180 | 4.0 | 6.0 | 0.00 | 0.00 | 0.00 | 89 | 1011.3 |
| 20260509121914 | 54 | 207 | 3.0 | 5.0 | 0.00 | 0.00 | 0.00 | 90 | 1011.4 |
| 20260509121414 | 53 | 172 | 2.0 | 5.0 | 0.00 | 0.00 | 0.00 | 90 | 1011.4 |
| 20260509120914 | 53 | 172 | 2.0 | 5.0 | 0.00 | 0.00 | 0.00 | 90 | 1011.4 |
| 20260509120414 | 52 | 170 | 2.0 | 5.0 | 0.00 | 0.00 | 0.00 | 90 | 1011.4 |
| 20260509115913 | 52 | 161 | 1.0 | 3.0 | 0.00 | 0.00 | 0.00 | 90 | 1011.4 |
| 20260509115414 | 51 | 161 | 2.0 | 3.0 | 0.00 | 0.00 | 0.00 | 90 | 1011.3 |
| 20260509114914 | 51 | 185 | 1.0 | 3.0 | 0.00 | 0.00 | 0.00 | 90 | 1011.3 |
| 20260509114414 | 51 | 185 | 2.0 | 3.0 | 0.00 | 0.00 | 0.00 | 90 | 1011.4 |
| 20260509113914 | 50 | 185 | 2.0 | 3.0 | 0.00 | 0.00 | 0.00 | 90 | 1011.2 |
| 20260509113414 | 50 | 130 | 2.0 | 3.0 | 0.00 | 0.00 | 0.00 | 90 | 1011.3 |
| 20260509112914 | 50 | 175 | 1.0 | 3.0 | 0.00 | 0.00 | 0.00 | 90 | 1011.3 |
| 20260509112413 | 49 | 176 | 2.0 | 3.0 | 0.00 | 0.00 | 0.00 | 90 | 1011.3 |
| 20260509111915 | 49 | 175 | 0.0 | 3.0 | 0.00 | 0.00 | 0.00 | 90 | 1011.3 |
| 20260509111413 | 49 | 176 | 2.0 | 3.0 | 0.00 | 0.00 | 0.00 | 90 | 1011.3 |
| 20260509110914 | 49 | 161 | 1.0 | 3.0 | 0.00 | 0.00 | 0.00 | 90 | 1011.2 |
| 20260509110414 | 49 | 181 | 2.0 | 3.0 | 0.00 | 0.00 | 0.00 | 90 | 1011.2 |
| 20260509105914 | 49 | 157 | 2.0 | 3.0 | 0.00 | 0.00 | 0.00 | 90 | 1011.2 |
| 20260509105414 | 48 | 177 | 1.0 | 3.0 | 0.00 | 0.00 | 0.00 | 90 | 1011.0 |
| 20260509104914 | 48 | 177 | 2.0 | 5.0 | 0.00 | 0.00 | 0.00 | 90 | 1011.0 |
| 20260509104414 | 48 | 147 | 2.0 | 5.0 | 0.00 | 0.00 | 0.00 | 90 | 1011.1 |
| 20260509103913 | 48 | 145 | 3.0 | 5.0 | 0.00 | 0.00 | 0.00 | 90 | 1011.3 |
| 20260509103414 | 48 | 136 | 3.0 | 5.0 | 0.00 | 0.00 | 0.00 | 90 | 1011.3 |
| 20260509102914 | 47 | 128 | 3.0 | 3.0 | 0.00 | 0.00 | 0.00 | 90 | 1011.2 |
| 20260509102413 | 47 | 204 | 0.0 | 1.0 | 0.00 | 0.00 | 0.00 | 90 | 1011.3 |
| 20260509101914 | 47 | 204 | 0.0 | 2.0 | 0.00 | 0.00 | 0.00 | 90 | 1011.3 |
| 20260509101414 | 47 | 204 | 1.0 | 2.0 | 0.00 | 0.00 | 0.00 | 90 | 1011.3 |
| 20260509100913 | 47 | 204 | 0.0 | 3.0 | 0.00 | 0.00 | 0.00 | 90 | 1011.3 |
| 20260509100414 | 47 | 204 | 2.0 | 3.0 | 0.00 | 0.00 | 0.00 | 90 | 1011.3 |
| 20260509095914 | 47 | 179 | 3.0 | 3.0 | 0.00 | 0.00 | 0.00 | 90 | 1011.3 |
| 20260509095413 | 47 | 179 | 1.0 | 5.0 | 0.00 | 0.00 | 0.00 | 89 | 1011.3 |
| 20260509094914 | 47 | 179 | 1.0 | 5.0 | 0.00 | 0.00 | 0.00 | 89 | 1011.3 |
| 20260509094414 | 47 | 179 | 1.0 | 5.0 | 0.00 | 0.00 | 0.00 | 89 | 1011.3 |
| 20260509093913 | 47 | 179 | 2.0 | 3.0 | 0.00 | 0.00 | 0.00 | 89 | 1011.4 |
| 20260509093414 | 47 | 179 | 1.0 | 3.0 | 0.00 | 0.00 | 0.00 | 89 | 1011.4 |
| 20260509092913 | 47 | 179 | 0.0 | 1.0 | 0.00 | 0.00 | 0.00 | 89 | 1011.5 |
| 20260509092413 | 47 | 179 | 0.0 | 1.0 | 0.00 | 0.00 | 0.00 | 89 | 1011.5 |
| 20260509091914 | 47 | 179 | 1.0 | 1.0 | 0.00 | 0.00 | 0.00 | 89 | 1011.6 |
| 20260509091414 | 47 | 179 | 0.0 | 1.0 | 0.00 | 0.00 | 0.00 | 88 | 1011.7 |
| 20260509090913 | 48 | 179 | 0.0 | 1.0 | 0.00 | 0.00 | 0.00 | 88 | 1011.6 |
| 20260509090414 | 48 | 179 | 0.0 | 0.0 | 0.00 | 0.00 | 0.00 | 88 | 1011.5 |
| 20260509085913 | 48 | 179 | 0.0 | 0.0 | 0.00 | 0.00 | 0.00 | 87 | 1011.5 |
| 20260509085413 | 48 | 179 | 0.0 | 0.0 | 0.00 | 0.00 | 0.00 | 87 | 1011.4 |
| 20260509084914 | 48 | 179 | 0.0 | 0.0 | 0.00 | 0.00 | 0.00 | 88 | 1011.5 |
| 20260509084414 | 48 | 179 | 0.0 | 3.0 | 0.00 | 0.00 | 0.00 | 88 | 1011.5 |
| 20260509083913 | 48 | 179 | 0.0 | 3.0 | 0.00 | 0.00 | 0.00 | 88 | 1011.5 |
| 20260509083414 | 48 | 184 | 2.0 | 5.0 | 0.00 | 0.00 | 0.00 | 87 | 1011.6 |
| 20260509082914 | 48 | 184 | 2.0 | 5.0 | 0.00 | 0.00 | 0.00 | 87 | 1011.6 |
| 20260509082413 | 48 | 149 | 2.0 | 3.0 | 0.00 | 0.00 | 0.00 | 87 | 1011.6 |
| 20260509081913 | 48 | 149 | 2.0 | 3.0 | 0.00 | 0.00 | 0.00 | 88 | 1011.6 |
| 20260509081414 | 48 | 149 | 2.0 | 3.0 | 0.00 | 0.00 | 0.00 | 88 | 1011.6 |
| 20260509080914 | 48 | 149 | 2.0 | 3.0 | 0.00 | 0.00 | 0.00 | 88 | 1011.6 |
| 20260509080413 | 48 | 149 | 2.0 | 5.0 | 0.00 | 0.00 | 0.00 | 88 | 1011.5 |
| 20260509075913 | 48 | 176 | 2.0 | 5.0 | 0.00 | 0.00 | 0.00 | 88 | 1011.6 |
| 20260509075413 | 48 | 179 | 1.0 | 5.0 | 0.00 | 0.00 | 0.00 | 88 | 1011.6 |
| 20260509074913 | 48 | 0 | 0.0 | 0.0 | 0.00 | 0.00 | 0.00 | 87 | 1011.7 |
| 20260509074413 | 48 | 0 | 0.0 | 0.0 | 0.00 | 0.00 | 0.00 | 87 | 1011.7 |
| 20260509073914 | 48 | 0 | 0.0 | 0.0 | 0.00 | 0.00 | 0.00 | 87 | 1011.8 |
| 20260509073413 | 48 | 0 | 0.0 | 0.0 | 0.00 | 0.00 | 0.00 | 87 | 1011.9 |
| 20260509072913 | 48 | 0 | 0.0 | 0.0 | 0.00 | 0.00 | 0.00 | 87 | 1011.9 |
| 20260509072413 | 48 | 0 | 0.0 | 0.0 | 0.00 | 0.00 | 0.00 | 87 | 1012.0 |
| 20260509071914 | 48 | 0 | 0.0 | 0.0 | 0.00 | 0.00 | 0.00 | 87 | 1011.9 |
| 20260509071413 | 48 | 0 | 0.0 | 0.0 | 0.00 | 0.00 | 0.00 | 88 | 1012.1 |
| 20260509070913 | 48 | 0 | 0.0 | 3.0 | 0.00 | 0.00 | 0.00 | 87 | 1012.3 |
| 20260509070414 | 48 | 8 | 1.0 | 3.0 | 0.00 | 0.00 | 0.00 | 87 | 1012.2 |
| 20260509065913 | 47 | 175 | 3.0 | 3.0 | 0.00 | 0.00 | 0.00 | 88 | 1012.1 |
| 20260509065413 | 47 | 175 | 3.0 | 5.0 | 0.00 | 0.00 | 0.00 | 88 | 1012.1 |
| 20260509064913 | 47 | 174 | 2.0 | 6.0 | 0.00 | 0.00 | 0.00 | 88 | 1012.1 |
| 20260509064413 | 47 | 146 | 3.0 | 9.0 | 0.00 | 0.00 | 0.00 | 92 | 1012.3 |
| 20260509063913 | 46 | 182 | 4.0 | 12.0 | 0.00 | 0.00 | 0.00 | 88 | 1012.3 |
| 20260509063413 | 46 | 193 | 5.0 | 12.0 | 0.00 | 0.00 | 0.00 | 88 | 1012.6 |
| 20260509062913 | 46 | 193 | 4.0 | 9.0 | 0.00 | 0.00 | 0.00 | 88 | 1012.6 |
| 20260509062413 | 46 | 191 | 5.0 | 7.0 | 0.00 | 0.00 | 0.00 | 88 | 1012.6 |
| 20260509061912 | 46 | 185 | 2.0 | 6.0 | 0.00 | 0.00 | 0.00 | 88 | 1012.6 |
| 20260509061413 | 45 | 177 | 2.0 | 6.0 | 0.00 | 0.00 | 0.00 | 88 | 1012.5 |
| 20260509060912 | 45 | 171 | 4.0 | 6.0 | 0.00 | 0.00 | 0.00 | 88 | 1012.5 |
| 20260509060413 | 45 | 169 | 4.0 | 6.0 | 0.00 | 0.00 | 0.00 | 87 | 1012.4 |
| 20260509055913 | 44 | 184 | 3.0 | 5.0 | 0.00 | 0.00 | 0.00 | 87 | 1012.5 |
| 20260509055413 | 44 | 183 | 2.0 | 3.0 | 0.00 | 0.00 | 0.00 | 87 | 1012.6 |
| 20260509054913 | 44 | 200 | 2.0 | 3.0 | 0.00 | 0.00 | 0.00 | 87 | 1012.7 |
| 20260509054413 | 43 | 281 | 1.0 | 3.0 | 0.00 | 0.00 | 0.00 | 87 | 1012.7 |
| 20260509053913 | 43 | 281 | 1.0 | 3.0 | 0.00 | 0.00 | 0.00 | 85 | 1012.7 |
| 20260509053413 | 44 | 281 | 2.0 | 3.0 | 0.00 | 0.00 | 0.00 | 85 | 1012.8 |
| 20260509052913 | 44 | 261 | 3.0 | 5.0 | 0.00 | 0.00 | 0.00 | 85 | 1012.8 |
| 20260509052413 | 44 | 214 | 3.0 | 6.0 | 0.00 | 0.00 | 0.00 | 85 | 1012.8 |
| 20260509051913 | 44 | 214 | 5.0 | 6.0 | 0.00 | 0.00 | 0.00 | 84 | 1012.7 |
| 20260509051413 | 45 | 214 | 5.0 | 7.0 | 0.00 | 0.00 | 0.00 | 84 | 1012.7 |
| 20260509050913 | 45 | 214 | 6.0 | 7.0 | 0.00 | 0.00 | 0.00 | 83 | 1012.7 |
| 20260509050413 | 45 | 214 | 6.0 | 7.0 | 0.00 | 0.00 | 0.00 | 82 | 1012.7 |
| 20260509045913 | 45 | 210 | 6.0 | 7.0 | 0.00 | 0.00 | 0.00 | 82 | 1012.7 |
| 20260509045413 | 45 | 211 | 5.0 | 8.0 | 0.00 | 0.00 | 0.00 | 82 | 1012.6 |
| 20260509044912 | 46 | 200 | 6.0 | 8.0 | 0.00 | 0.00 | 0.00 | 81 | 1012.7 |
| 20260509044413 | 46 | 199 | 6.0 | 8.0 | 0.00 | 0.00 | 0.00 | 81 | 1012.7 |
| 20260509043913 | 46 | 202 | 6.0 | 8.0 | 0.00 | 0.00 | 0.00 | 80 | 1012.7 |
| 20260509043413 | 47 | 203 | 6.0 | 7.0 | 0.00 | 0.00 | 0.00 | 80 | 1012.7 |
| 20260509042913 | 47 | 202 | 5.0 | 7.0 | 0.00 | 0.00 | 0.00 | 80 | 1012.7 |
| 20260509042414 | 47 | 203 | 5.0 | 6.0 | 0.00 | 0.00 | 0.00 | 80 | 1012.7 |
| 20260509041912 | 47 | 202 | 3.0 | 3.0 | 0.00 | 0.00 | 0.00 | 79 | 1012.6 |
| 20260509041412 | 48 | 167 | 2.0 | 6.0 | 0.00 | 0.00 | 0.00 | 79 | 1012.6 |
| 20260509040913 | 48 | 193 | 3.0 | 6.0 | 0.00 | 0.00 | 0.00 | 78 | 1012.6 |
| 20260509040413 | 48 | 184 | 3.0 | 6.0 | 0.00 | 0.00 | 0.00 | 78 | 1012.6 |
| 20260509035912 | 49 | 172 | 4.0 | 8.0 | 0.00 | 0.00 | 0.00 | 76 | 1012.6 |
| 20260509035413 | 49 | 191 | 3.0 | 8.0 | 0.00 | 0.00 | 0.00 | 75 | 1012.6 |
| 20260509034912 | 49 | 155 | 3.0 | 7.0 | 0.00 | 0.00 | 0.00 | 74 | 1012.6 |
| 20260509034413 | 50 | 177 | 4.0 | 6.0 | 0.00 | 0.00 | 0.00 | 72 | 1012.6 |
| 20260509033912 | 50 | 163 | 3.0 | 6.0 | 0.00 | 0.00 | 0.00 | 71 | 1012.6 |
| 20260509033413 | 50 | 171 | 3.0 | 6.0 | 0.00 | 0.00 | 0.00 | 72 | 1012.6 |
| 20260509032914 | 51 | 173 | 3.0 | 6.0 | 0.00 | 0.00 | 0.00 | 72 | 1012.6 |
| 20260509032413 | 51 | 158 | 3.0 | 7.0 | 0.00 | 0.00 | 0.00 | 70 | 1012.7 |
| 20260509031912 | 51 | 173 | 3.0 | 10.0 | 0.00 | 0.00 | 0.00 | 69 | 1012.7 |
| 20260509031414 | 51 | 177 | 5.0 | 12.0 | 0.00 | 0.00 | 0.00 | 69 | 1012.7 |
| 20260509030912 | 52 | 191 | 6.0 | 12.0 | 0.00 | 0.00 | 0.00 | 68 | 1012.7 |